KT4FD Weather Reports


time (UTC)temp
C
wind
direction
speed
KPH
gust
KPH
rain 1hr
cm
rain 24hr
cm
rain mn
cm
humidity
%
barometer
mb
20260504204002 23 204 4.8 12.9 0.00 0.00 0.00 47 1016.8
20260504203002 24 203 9.7 19.3 0.00 0.00 0.00 42 1016.9
20260504202002 23 246 9.7 14.5 0.00 0.00 0.00 44 1017.0
20260504201002 23 244 9.7 19.3 0.00 0.00 0.00 45 1017.1
20260504200003 23 167 6.4 19.3 0.00 0.00 0.00 45 1017.2
20260504195002 23 214 9.7 14.5 0.00 0.00 0.00 45 1017.3
20260504193003 23 230 8.0 19.3 0.00 0.00 0.00 50 1017.4
20260504192003 23 208 8.0 12.9 0.00 0.00 0.00 48 1017.6
20260504191002 23 197 4.8 19.3 0.00 0.00 0.00 50 1017.6
20260504190002 23 224 8.0 16.1 0.00 0.00 0.00 48 1017.7
20260504185003 23 219 9.7 14.5 0.00 0.00 0.00 47 1017.8
20260504184003 23 220 6.4 12.9 0.00 0.00 0.00 49 1018.0
20260504183002 23 207 9.7 16.1 0.00 0.00 0.00 46 1018.1
20260504182002 23 202 4.8 24.1 0.00 0.00 0.00 46 1018.2
20260504181002 22 215 8.0 19.3 0.00 0.00 0.00 47 1018.4
20260504180002 22 226 12.9 20.9 0.00 0.00 0.00 43 1018.5
20260504175002 22 218 6.4 19.3 0.00 0.00 0.00 49 1018.6
20260504174002 22 257 8.0 12.9 0.00 0.00 0.00 47 1018.8
20260504151003 18 262 8.0 19.3 0.00 0.00 0.00 55 1020.4
20260504141002 16 277 8.0 19.3 0.00 0.00 0.00 57 1020.6
20260504031003 9 222 0.0 0.0 0.00 0.00 0.00 73 1021.1
20260504030003 9 222 0.0 0.0 0.00 0.00 0.00 73 1021.2
20260504025003 9 222 0.0 0.0 0.00 0.00 0.00 73 1021.1
20260504024002 9 222 0.0 0.0 0.00 0.00 0.00 72 1021.1
20260504023003 10 222 0.0 0.0 0.00 0.00 0.00 72 1021.0
20260504022003 10 222 0.0 0.0 0.00 0.00 0.00 71 1020.8
20260504021003 10 222 0.0 0.0 0.00 0.00 0.00 68 1020.7
20260503210003 19 221 12.9 22.5 0.00 0.00 0.00 43 1019.9